Weather History for Salt Point, LA

Change the Weather History Date:

Monday, December 17, 2012

  Actual Average Record
Temperature  
Mean Temperature 65 °F -  
Max Temperature 69 °F 59 °F 72 °F (2001)
Min Temperature 61 °F 43 °F 34 °F (2000)
Growing Degree Days 15 (Base 50)    
Moisture  
Dew Point 60 °F    
Average Humidity 85    
Maximum Humidity 93    
Minimum Humidity 75    
Precipitation  
Precipitation 0.00 in - - ()
Sea Level Pressure  
Sea Level Pressure 29.84 in    
Wind  
Wind Speed 5 mph (WSW)    
Max Wind Speed 7 mph    
Max Gust Speed -    
Averages and records for this station are not official NWS values.
T = Trace of Precipitation, MM = Missing Value Source: NWS Daily Summary

Daily Weather History Graph

Daily Weather History Graph

Search for Another Location

Airport:

Trip Planner

Search our weather history database for the weather conditions in past years. The results will help you decide how hot, cold, wet, or windy it might be!

Date:

Astronomy

Dec. 17, 2012 Rise Set
Actual Time 6:54 AM CST 5:10 PM CST
Civil Twilight 6:28 AM CST 5:36 PM CST
Nautical Twilight 5:58 AM CST 6:06 PM CST
Astronomical Twilight 5:29 AM CST 6:35 PM CST
Moon 10:21 AM CST (12/17) 10:11 PM CST (12/17)
Length of Visible Light 11h 07m
Length of Day
10h 15m
Waxing Crescent, 25% of the Moon is Illuminated
Dec 17
Waxing Crescent
Dec 19
First Quarter
Dec 28
Full
Jan 4
Last Quarter
Jan 11
New

Hourly Weather History & Observations

Time (CST) Temp. Dew Point Humidity Pressure Visibility Wind Dir Wind Speed Gust Speed Precip Events Conditions
12:53 AM 66.0 °F 61.0 °F 84% 29.81 in - SE 5.8 mph - N/A   Unknown
1:53 AM 66.9 °F 62.1 °F 84% 29.81 in - SE 6.9 mph - N/A   Unknown
2:53 AM 66.9 °F 64.0 °F 90% 29.80 in - SSE 5.8 mph - N/A   Unknown
3:53 AM 68.0 °F 66.0 °F 93% 29.79 in - SSE 3.5 mph - N/A   Unknown
4:53 AM 69.1 °F 66.0 °F 90% 29.78 in - SSW 4.6 mph - N/A   Unknown
5:53 AM 66.0 °F 63.0 °F 90% 29.81 in - WSW 4.6 mph - N/A   Unknown
6:53 AM 68.0 °F 64.9 °F 90% 29.82 in - West 5.8 mph - N/A   Unknown
7:53 AM 64.9 °F 63.0 °F 93% 29.83 in - West 3.5 mph - N/A   Unknown
8:53 AM 64.0 °F 62.1 °F 93% 29.86 in - Calm Calm - N/A   Unknown
9:53 AM 64.9 °F 63.0 °F 93% 29.86 in - Calm Calm - N/A   Unknown
10:53 AM 64.9 °F 63.0 °F 93% 29.87 in - WSW 5.8 mph - N/A   Unknown
11:53 AM 64.0 °F 62.1 °F 93% 29.84 in - West 4.6 mph - N/A   Unknown
12:53 PM 64.9 °F 61.0 °F 87% 29.83 in - West 3.5 mph - N/A   Unknown
1:53 PM 66.0 °F 57.9 °F 75% 29.82 in - Variable 3.5 mph - N/A   Unknown
2:53 PM 66.0 °F 57.9 °F 75% 29.81 in - Calm Calm - N/A   Unknown
3:53 PM 64.9 °F 57.0 °F 75% 29.83 in - SW 4.6 mph - N/A   Unknown
6:53 PM 63.0 °F 55.0 °F 75% 29.86 in - West 6.9 mph - N/A   Unknown
7:53 PM 62.1 °F 55.9 °F 80% 29.88 in - West 6.9 mph - N/A   Unknown
8:53 PM 63.0 °F 55.0 °F 75% 29.90 in - West 5.8 mph - N/A   Unknown
9:53 PM 62.1 °F 55.0 °F 78% 29.91 in - West 5.8 mph - N/A   Unknown
10:53 PM 61.0 °F 54.0 °F 78% 29.92 in - West 5.8 mph - N/A   Unknown
11:53 PM 61.0 °F 54.0 °F 78% 29.94 in - WNW 4.6 mph - N/A   Unknown